Location: Huntsville
(41.2590°N, 111.7678°W)
Time: 03:58:05
(UTC+00:00)

Transit 2A - Visible Passes

Search period start: 06 October 2022 00:00
Search period end: 16 October 2022 00:00
Orbit: 601 x 956 km, 66.7° (Epoch: 05 October)

Date Brightness Start Highest point End Pass type
(mag) Time Alt. Az. Time Alt. Az. Time Alt. Az.
06 Oct 8.6 12:36:57 10° NNE 12:38:40 12° NE 12:40:25 10° ENE visible
09 Oct 8.1 12:35:17 10° N 12:39:08 24° NE 12:43:16 10° ESE visible
10 Oct 8.4 12:01:23 10° N 12:04:34 17° NE 12:07:54 10° E visible
11 Oct 8.6 11:27:50 10° NNE 11:29:55 13° NE 11:32:02 10° ENE visible
12 Oct 6.8 12:34:37 10° NNW 12:39:19 52° ENE 12:44:29 10° SE visible
13 Oct 7.4 12:00:26 10° NNW 12:04:52 36° NE 12:09:41 10° ESE visible
14 Oct 7.9 11:26:21 10° N 11:30:21 25° NE 11:34:39 10° ESE visible
14 Oct 6.3 13:08:56 10° NW 13:13:37 45° WSW 13:18:45 10° S visible
15 Oct 8.4 10:52:24 10° N 10:55:46 18° NE 10:59:19 10° E visible
15 Oct 5.9 12:34:26 10° NW 12:39:17 68° WSW 12:44:39 10° SSE visible
